This is the latest recevied weather packets stored in our database for station/object F4LNO-10. If no packets are shown the sender has not sent any weather packets the latest 10 day(s).
| Time | Temp. | Humidity | Pressure | Rain* | Wind** | Luminosity | Snow |
|---|---|---|---|---|---|---|---|
| 1777581355 | 22.78° C | 59% | 1021.3 hPa | - | - | - | - |
| 1777581354 | 22.78° C | 59% | 1021.3 hPa | - | - | - | - |
| 1777580453 | 23.33° C | 52% | 1021.1 hPa | - | - | - | - |
| 1777579553 | 23.33° C | 53% | 1020.9 hPa | - | - | - | - |
| 1777578652 | 23.33° C | 54% | 1020.7 hPa | - | - | - | - |
| 1777577770 | 23.33° C | 53% | 1020.6 hPa | - | - | - | - |
| 1777576870 | 23.33° C | 52% | 1020.6 hPa | - | - | - | - |
| 1777575969 | 23.33° C | 53% | 1020.5 hPa | - | - | - | - |
| 1777575068 | 23.33° C | 53% | 1020.5 hPa | - | - | - | - |
| 1777574167 | 23.33° C | 52% | 1020.5 hPa | - | - | - | - |
| 1777573266 | 22.22° C | 53% | 1020.4 hPa | - | - | - | - |
| 1777572365 | 22.22° C | 53% | 1020.5 hPa | - | - | - | - |
| 1777571464 | 23.33° C | 52% | 1020.5 hPa | - | - | - | - |
| 1777570564 | 23.33° C | 51% | 1020.3 hPa | - | - | - | - |
| 1777569663 | 23.33° C | 52% | 1020.4 hPa | - | - | - | - |
| 1777568762 | 23.33° C | 53% | 1020.4 hPa | - | - | - | - |
| 1777567861 | 23.33° C | 53% | 1020.5 hPa | - | - | - | - |
| 1777566960 | 22.78° C | 54% | 1020.5 hPa | - | - | - | - |
| 1777566059 | 22.78° C | 54% | 1020.4 hPa | - | - | - | - |
| 1777565159 | 22.78° C | 54% | 1020.2 hPa | - | - | - | - |
| 1777564258 | 22.78° C | 56% | 1020.3 hPa | - | - | - | - |
| 1777563357 | 22.78° C | 54% | 1020.3 hPa | - | - | - | - |
| 1777562456 | 22.78° C | 54% | 1020.1 hPa | - | - | - | - |
| 1777561555 | 23.33° C | 54% | 1020 hPa | - | - | - | - |
| 1777560654 | 22.78° C | 54% | 1020 hPa | - | - | - | - |
* Rain since midnight (hover to see other rain measurements)
** Current wind speed in m/s (hover to see current wind gust speed)